Regional Weather Roundup
Issued by NWS Wakefield, VA

Home | Current Version | Previous Version | Text Only | Print | Product List | Glossary Off
Versions: 1 2 3 4 5 6 7 8 9 10 11 12 13 14 15 16 17 18 19 20 21 22 23 24 25 26

000
ASUS41 KAKQ 251815
RWRAKQ

REGIONAL WEATHER ROUNDUP
NATIONAL WEATHER SERVICE WAKEFIELD VA
200 PM EDT WED MAY 25 2016

Note: "fair" indicates few or no clouds below 12,000 feet with no
significant weather and/or obstructions to visibility. * = Denotes
station may not report precipitation (e.g., rain,snow,etc.),
thunder or fog.

VAZ042-051-052>054-056-251900-
NORTHERN VIRGINIA

CITY           SKY/WX    TMP DP  RH WIND       PRES   REMARKS
WASH NATIONAL  PTSUNNY   85  52  32 W8G20     30.14F
DULLES         PTSUNNY   84  50  30 SW9       30.15F
FORT BELVOIR   FAIR      84  53  34 VRB7      30.14F
QUANTICO       PTSUNNY   79  59  50 S7        30.15F
FREDERICKSBRG* FAIR      84  55  37 SW7       30.14F
STAFFORD*      FAIR      83  51  33 NW5       30.19F
WARRENTON      FAIR      85  45  24 SW6       30.15F
CULPEPER*      FAIR      84  53  34 SW7       30.16F
MANASSAS*      SUNNY     84  50  30 NW7       30.15F
LEESBURG*      FAIR      86  55  35 NW5       30.15F
WINCHESTER     FAIR      81  52  36 SW6       30.17S
FRONT ROYAL*   FAIR      81  54  39 CALM      30.16F
LURAY*         FAIR      81  52  36 S7        30.17F
$$

VAZ048-049-060>072-079>083-251900-
CENTRAL AND SOUTH CENTRAL VIRGINIA

CITY           SKY/WX    TMP DP  RH WIND       PRES   REMARKS
RICHMOND       PTSUNNY   85  53  33 W13       30.16F
CHESTERFIELD*  FAIR      84  52  32 W6        30.18F
PETERSBURG*    FAIR      86  53  32 SW8       30.17F
HANOVER        FAIR      84  53  34 SW8       30.17F
TAPPAHANNOCK*  FAIR      87  52  29 SW9       30.17S
QUINTON*       FAIR      84  55  37 W13       30.16S
CHARLOTTSVILLE FAIR      83  51  33 VRB5      30.16F
GORDONSVILLE*  FAIR      82  53  35 CALM      30.15F
ORANGE*        FAIR      84  52  32 SW7       30.18F
LOUISA*        FAIR      86  54  32 W7        30.16S
BUMPASS*       FAIR      83  53  36 W5        30.16F
FARMVILLE*     FAIR      85  51  31 W5        30.16F
CREWE*         FAIR      83  56  38 S5        30.18S
FORT PICKETT*  NOT AVBL
CHASE CITY*    FAIR      84  47  27 SW6       30.19S
CLARKSVILLE*   FAIR      82  55  39 SW5       30.19S
SOUTH HILL*    FAIR      83  56  38 S10       30.24F
LAWRENCEVILLE* FAIR      84  57  39 S5        30.17F
EMPORIA*       FAIR      82  54  36 S5        30.18F
$$

VAZ088>098-251900-
SOUTHEAST VIRGINIA

CITY           SKY/WX    TMP DP  RH WIND       PRES   REMARKS
NORFOLK        FAIR      81  55  40 NE9       30.15F
VIRGINIA BEACH PTSUNNY   87  59  38 E8        30.15F
NORFOLK NAVAL  FAIR      86  56  35 VRB5      30.17F
WEST POINT*    FAIR      84  50  31 CALM      30.17F
SALUDA*        FAIR      82  59  45 NE3       30.16S
NEWPORT NEWS     N/A    N/A N/A N/A MISG      30.16F
LANGLEY AFB    MOSUNNY   85  58  41 SW8       30.16S
FORT EUSTIS    FAIR      84  69  61 VRB3      30.15S
WILLIAMSBURG*  FAIR      88  57  35 S8        30.17S
HR EXEC AP*    FAIR      88  57  35 W8        30.18S
FRANKLIN*      FAIR      85  57  38 SW7       30.17S
US460-WAKEFLD  FAIR      86  51  29 VRB6G17   30.17S
$$

VAZ020-022-025-037-045-251900-
WEST CENTRAL AND SOUTHWEST VIRGINIA

CITY           SKY/WX    TMP DP  RH WIND       PRES   REMARKS
STAUNTON*      FAIR      79  52  38 SW3       30.21F
WAYNESBORO*    FAIR      78  49  36 W8        30.22S
HOT SPRINGS VA FAIR      71  49  45 W8G16     30.29F
LYNCHBURG      FAIR      80  52  37 S12       30.20F
DANVILLE       FAIR      83  55  38 SW5       30.19F
SOUTH BOSTON*  FAIR      84  51  32 SW5       30.18F
MARTINSVILLE   FAIR      81  52  36 S3        30.22F
ROANOKE        FAIR      83  51  33 SW6       30.21F
BLACKSBURG     FAIR      78  56  46 CALM      30.27F
DUBLIN*        FAIR      81  51  35 CALM      30.26F
MARION*        FAIR      78  56  47 SW8       30.29F
HILLSVILLE*    FAIR      75  53  46 CALM      30.26F
RICHLANDS*     FAIR      76  52  42 W8        30.27F
WISE*          FAIR      77  46  33 SW14      30.28F
ABINGDON*      FAIR      80  55  41 W12       30.26S
$$

MDZ021>025-VAZ099-100-251900-
SOUTHERN MARYLAND AND THE DELMARVA PENINSULA

CITY           SKY/WX    TMP DP  RH WIND       PRES   REMARKS
PATUXENT RIVER CLOUDY    86  50  28 W9        30.15S
BAY BRIDGE APT CLOUDY    84  50  30 SW7       30.14S
LEONARDTOWN    MOSUNNY   82  48  30 W7        30.17S
DOVER          MOSUNNY   85  55  36 W13       30.11S
GEORGETOWN     MOSUNNY   85  48  27 W9        30.14S
EASTON         PTSUNNY   84  59  42 W7        30.18S
CAMBRIDGE      CLOUDY    82  50  32 W6        30.15R
SALISBURY      CLOUDY    85  50  29 W8        30.14S
OCEAN CITY     MOSUNNY   80  61  52 S8        30.13F
WALLOPS ISLAND PTSUNNY   85  52  32 W7        30.16R
ACCOMACK*      FAIR      82  46  28 NW7       30.16S
$$

NCZ012>017-030>032-251900-
NORTH CENTRAL AND EASTERN NORTH CAROLINA

CITY           SKY/WX    TMP DP  RH WIND       PRES   REMARKS
ROANOKE RAPIDS FAIR      86  54  32 SW8G18    30.18F
RALEIGH        MOSUNNY   85  56  37 SW10      30.20F
ELIZABETH CITY SUNNY     86  59  39 SW8       30.17F
AHOSKIE*       MOSUNNY   83  56  39 W3        30.18S
EDENTON*       SUNNY     85  60  41 SW3       30.19S
CURRITUCK*     MOSUNNY   87  56  34 W9        30.18S
KILL DEVIL HLS SUNNY     87  57  36 W6        30.18S
MANTEO         MOSUNNY   83  59  45 W6        30.19S
CAPE HATTERAS  SUNNY     77  66  68 SW8       30.22F
TARBORO*       FAIR      87  58  37 SW8       30.19F
GOLDSBORO      MOSUNNY   86  51  29 S7        30.18F
WASHINGTON     MOSUNNY   84  59  42 NW7       30.19F
GREENVILLE     MOSUNNY   86  61  42 W10       30.21S
NEW BERN       MOSUNNY   86  55  34 SW5       30.21F
WILMINGTON     MOSUNNY   85  56  37 CALM      30.21F
$$

VAZ048-251900-
ELSEWHERE

CITY           SKY/WX    TMP DP  RH WIND       PRES   REMARKS
HARRISBURG PA  PTSUNNY   84  48  28 NW9       30.10F
BALTIMORE      PTSUNNY   85  50  29 VRB7      30.12F
ANNAPOLIS      CLOUDY    84  50  30 CALM      30.12F
ANDREWS AFB    FAIR      84  49  30 SW13      30.14F
PHILADELPHIA   PTSUNNY   85  38  18 W13       30.10F
HENDERSON NC   MOSUNNY   79  56  44 W7        30.20S
GREENSBORO     PTSUNNY   84  52  33 VRB7      30.21F
ROCKY MOUNT    MOSUNNY   87  55  33 S10       30.19F
$$

VAZ100-251900-
MARINE

STATION/POSITION TIME  TEMP    WIND        PRES    WAVE   SWELL
                       AIR SEA DIR/SP/G            HT/PER HT/PER
                 (UTC) (F)     (DEG/KT/KT) (MB)    (FT/S) (FT/S)
BRANDYWINE LGT   1700   76     180/  2/  3 1020.5S
CAPE MAY NJ      1700   76 65  260/  4/  4 1020.3S
LEWES DE         1700   77 61   50/  4/  5 1020.4R
15NM E FENWICK I 1750   65 58              1020.6F   2/11
OCEAN-CITY-INLET 1700   72 60  170/  8/ 11 1021.2R
WACHAPREAGUE VA  1700   79 69  170/  7/  8 1020.7F
THOMAS POINT MD  1800   77 64  170/ 11/ 12 1021.4F
GOOSES REEF MD   1700   70 67  180/  4/  6 1022.0R   1
COVE POINT MD    1700   76     180/  5/  6 1021.4F
SOLOMONS ISLAND  1700   82 64  260/  6/ 11   N/A
BISHOPS HEAD MD  1700   74 74  220/  5/  5 1021.3F
PINEY POINT MD   1700          360/  8/  8   N/A
POTOMAC MD       1700   72 71  320/  4/  6 1020.3F   0
CAMBRIDGE MD     1700   77 64  330/  6/  6 1020.0S
LEWISETTA VA     1700   79 68   20/  4/  5 1020.8F
RAPPAHANNOCK LGT 1700          200/  5/  5 1022.0F
STINGRAY PT      1700   70 68  160/  6/  6 1021.7F   0
YORK RVR RNG VA  1700   74     140/  6/  6 1020.9F
YORKTOWN VA      1700   75 65   60/  6/  7 1021.1F
JAMESTOWN VA     1700   77 71  320/  4/  4   N/A     0
DOMINION TERM VA 1700   81     250/  2/  2 1021.6F
KIPTOPEKE VA     1700      66  180/  3/  3   N/A
CHES BAY BRIDGE  1700   76 65  330/  2/  3 1021.6F
CAPE HENRY VA    1700   76     350/  6/  6   N/A
CHESAPEAKE LGHT  1700   73     250/  4/  4 1022.6S
WILLOUBY STN VA  1700   77     280/  6/  6 1022.6F
CAPE HENRY BUOY  1712      65                N/A     2/10
1ST LANDING BUOY 1700   73 67  330/  4/  4 1021.5F   1/ 4
CAPE CHARLES BUO 1726      65                N/A     2/ 9   2/ 9
OFFSHORE WE BUOY 1721      63                N/A     2/ 9   2/ 9
64NM E OF VA BCH 1750   62 60  210/  4/  4 1022.0S   2/ 9   2/ 9
DUCK PIER NC     1700   78 60  250/ 11/ 14 1021.6F
44100 DUCK FRF   1724      64                N/A     2/ 9
44056 DUCK FRF   1711      63                N/A     2/ 9
OREGON INLET NC  1700   74 69  190/  9/ 10 1022.5F
HATTERAS NC      1700   76 68  260/  7/  9 1023.0F
DIAMOND SHLS NC  1750   70 70  240/  8/ 10 1023.5F   3/ 8   2/ 8
CAPE LOOKOUT NC1F1C2F2C3F3C4F4C5F5C6F6C7F7C8M1C9!



USA.gov is the U.S. government's official web portal to all federal, state and local government web resources and services.